Location: Newark
(33.9035°S, 18.4112°E)
Time: 09:21:45
(UTC+00:00)

STARLINK-1093 - Pass Details

Date: 21 January 2020
Orbit: 349 x 351 km, 53.0° (Epoch: 18 February)

Event Time Altitude Azimuth Distance (km) Brightness Sun altitude
Exits shadow 02:47:31 27° 294° (WNW) 729 3.7 -13.2°
Maximum altitude 02:48:54 58° 224° (SW) 421 2.9 -12.9°
Drops below altitude 10° 02:51:51 10° 143° (SE) 1,340 6.9 -12.4°
Sets 02:53:54 0° 139° (SE) 2,191 8.4 -12.1°
